METEOR 2-20 DEB, 44698

Orbit data source: Space-Track

METEOR 2-20 DEB, 44698 is space debris in LEO originally from a launch on Fri, 28 Sep 1990 UTC launched from the Plesetsk Missile And Space Complex (PKMTR). Debris objects in space refer to the collection of defunct objects orbiting the Earth. Examples of debris include non-operational satellites, rocket bodies, and fragments generated from explosions, collisions, or faulty payload assembly.

Loading next visibility...
Identifier
44698, 1990-086C
Orbit
LEO
Country
Flag of CISCIS
Related business
Manufacturer
Unknown
Mission
Spacecraft
Bus & Motor
Unknown
Mass
Unknown
Launch date (UTC)
1990-09-28 (36 years ago)
Launch vehicle
Unknown
Launch site
Plesetsk Missile And Space Complex (PKMTR)
Object type
Payload
Rocket body
Debris
Shape & HBR
Unknown shape, 0.1 m
Radar Cross Section
Small (<0.1 m²)

Expand to show TLE details & history
Last TLE update: 4 days ago

TLE from 4 days ago
0 METEOR 2-20 DEB
1 44698U 90086C   26169.67625094  .00002302  00000-0  14938-2 0  9991
2 44698  82.5122 152.0914 0021700 149.3344 210.9099 14.02126214618438
Epoch: 2026-06-18T16:13Z
TLE epoch observation values (Epoch: 2026-06-18T16:13:48.081Z)
Latitude
-0.00006°
Longitude
1.72489°
Altitude
902.905 km
Speed
7.394 km/s
True Right ascension
10h 08m 21s
True Declination
0° 00' 00"
Sunlit
Object was in daylight at epoch
Visualization orbit readout
Latitude
Unknown
Longitude
Unknown
Altitude
Unknown
Speed
Unknown
Apparent Right ascension
Unknown
Apparent Declination
Unknown
Sunlit
N/A
Visualization observer readout
Local Sidereal Time
21:24:32
Azimuth
Unknown
Elevation
Unknown
Doppler factor
Unknown
Orbital elements
Apogee altitude
899.328 km
Perigee altitude
867.812 km
Semi-major axis
7,261.707 km
Eccentricity
0.00217
Inclination
82.5122°
RAAN
152.0914°
Arg. of periapsis
149.3344°
True anomaly
210.78246°
Mean anomaly
210.9099°
Eccentric anomaly
210.84615°
Mean motion
3.5074 °/min
Orbital period
102.64 mins
BSTAR
0.0014938
Loading maneuver chart data...
Computing Atmospheric mass density...
Loading historical data...
Loading historical data...
Loading historical data...
Loading historical data...
Loading historical data...
Loading historical data...
Loading historical data...

Documentation

Showing up to 5 results
|